• In Czech Republic
  • List of Countries
  • For 7 days
  • Water Temperature
  • Satellite Maps
  • Weather Map
  • Weather Widgets
  • user-avatar
    Login

    Hourly Weather Salzburg

    Today, 23 May, Tuesday

    Time Temperature Precipitation Wind Pressure Humidity
    00:00 +4°C° 0 mm 2 mps 626 mmHg 88%
    01:00 +3°C° 0 mm 2 mps 626 mmHg 86%
    02:00 +3°C° 0 mm 2 mps 626 mmHg 86%
    03:00 +3°C° 0 mm 2 mps 626 mmHg 85%
    04:00 +3°C° 0 mm 2 mps 625 mmHg 84%
    05:00 +4°C° 0.1 mm 2 mps 626 mmHg 83%
    06:00 +7°C° 0.1 mm 1 mps 627 mmHg 82%
    07:00 +9°C° 0.1 mm 1 mps 628 mmHg 81%
    08:00 +11°C° 0.1 mm 1 mps 629 mmHg 73%
    09:00 +12°C° 0.1 mm 2 mps 629 mmHg 66%
    10:00 +14°C° 0.1 mm 2 mps 630 mmHg 59%
    11:00 +14°C° 0.1 mm 2 mps 630 mmHg 57%
    12:00 +15°C° 0.1 mm 2 mps 630 mmHg 55%
    13:00 +15°C° 0.1 mm 2 mps 630 mmHg 54%
    14:00 +14°C° 0.2 mm 3 mps 630 mmHg 57%
    15:00 +14°C° 0.2 mm 3 mps 629 mmHg 61%
    16:00 +13°C° 0.2 mm 3 mps 629 mmHg 65%
    17:00 +13°C° 0.2 mm 2 mps 629 mmHg 73%
    18:00 +10°C° 0.2 mm 2 mps 629 mmHg 81%
    19:00 +9°C° 0.2 mm 2 mps 628 mmHg 89%
    20:00 +8°C° 0.3 mm 2 mps 628 mmHg 90%
    21:00 +7°C° 0.3 mm 2 mps 628 mmHg 92%
    22:00 +6°C° 0.3 mm 2 mps 628 mmHg 93%
    23:00 +5°C° 0.1 mm 2 mps 628 mmHg 93%

    Tomorrow, 24 May, Wednesday

    Time Temperature Precipitation Wind Pressure Humidity
    00:00 +5°C° 0.1 mm 2 mps 628 mmHg 92%
    01:00 +5°C° 0.1 mm 2 mps 628 mmHg 91%
    02:00 +5°C° 0.3 mm 2 mps 628 mmHg 91%
    03:00 +5°C° 0.3 mm 2 mps 628 mmHg 92%
    04:00 +6°C° 0.3 mm 2 mps 628 mmHg 92%
    05:00 +6°C° 0.5 mm 2 mps 628 mmHg 92%
    06:00 +6°C° 0.5 mm 2 mps 629 mmHg 92%
    07:00 +7°C° 0.5 mm 2 mps 629 mmHg 93%
    08:00 +7°C° 0.4 mm 2 mps 629 mmHg 90%
    09:00 +8°C° 0.4 mm 2 mps 630 mmHg 88%
    10:00 +9°C° 0.4 mm 3 mps 630 mmHg 85%
    11:00 +9°C° 0.1 mm 3 mps 630 mmHg 81%
    12:00 +10°C° 0.1 mm 3 mps 630 mmHg 78%
    13:00 +10°C° 0.1 mm 3 mps 630 mmHg 74%
    14:00 +11°C° 0.1 mm 3 mps 630 mmHg 71%
    15:00 +11°C° 0.1 mm 3 mps 630 mmHg 69%
    16:00 +11°C° 0.1 mm 3 mps 630 mmHg 67%
    17:00 +10°C° 0 mm 3 mps 630 mmHg 73%
    18:00 +9°C° 0 mm 2 mps 629 mmHg 79%
    19:00 +7°C° 0 mm 2 mps 629 mmHg 86%
    20:00 +6°C° 0 mm 2 mps 629 mmHg 89%
    21:00 +6°C° 0 mm 2 mps 629 mmHg 92%
    22:00 +5°C° 0 mm 2 mps 629 mmHg 96%
    23:00 +4°C° 0 mm 2 mps 629 mmHg 96%

    Day after tomorrow, 25 May, Thursday

    Time Temperature Precipitation Wind Pressure Humidity
    00:00 +4°C° 0 mm 2 mps 628 mmHg 95%
    01:00 +4°C° 0 mm 2 mps 628 mmHg 95%
    02:00 +4°C° 0.3 mm 2 mps 628 mmHg 95%
    03:00 +4°C° 0.3 mm 2 mps 627 mmHg 95%
    04:00 +4°C° 0.3 mm 2 mps 627 mmHg 94%
    05:00 +4°C° 2.2 mm 2 mps 627 mmHg 94%
    06:00 +3°C° 2.2 mm 3 mps 627 mmHg 94%
    07:00 +4°C° 2.2 mm 3 mps 627 mmHg 94%
    08:00 +4°C° 2.6 mm 3 mps 627 mmHg 95%
    09:00 +4°C° 2.6 mm 3 mps 627 mmHg 95%
    10:00 +4°C° 2.6 mm 3 mps 627 mmHg 96%
    11:00 +4°C° 0.6 mm 3 mps 628 mmHg 93%
    12:00 +5°C° 0.6 mm 3 mps 628 mmHg 90%
    13:00 +5°C° 0.6 mm 3 mps 628 mmHg 87%
    14:00 +7°C° 0.1 mm 3 mps 628 mmHg 84%
    15:00 +7°C° 0.1 mm 2 mps 628 mmHg 81%
    16:00 +8°C° 0.1 mm 2 mps 628 mmHg 78%
    17:00 +7°C° 0 mm 2 mps 628 mmHg 81%
    18:00 +7°C° 0 mm 2 mps 628 mmHg 85%
    19:00 +7°C° 0 mm 1 mps 628 mmHg 89%
    20:00 +6°C° 0 mm 1 mps 628 mmHg 91%
    21:00 +5°C° 0 mm 1 mps 628 mmHg 94%
    22:00 +4°C° 0 mm 1 mps 628 mmHg 96%
    23:00 +4°C° 0 mm 1 mps 627 mmHg 96%

    26 May, Friday

    Time Temperature Precipitation Wind Pressure Humidity
    00:00 +4°C° 0 mm 1 mps 627 mmHg 96%
    01:00 +4°C° 0 mm 1 mps 627 mmHg 96%
    02:00 +3°C° 0 mm 1 mps 627 mmHg 96%
    03:00 +3°C° 0 mm 1 mps 627 mmHg 96%
    04:00 +3°C° 0 mm 1 mps 627 mmHg 96%
    05:00 +5°C° 0 mm 1 mps 627 mmHg 92%
    06:00 +6°C° 0 mm 1 mps 627 mmHg 88%
    07:00 +7°C° 0 mm 1 mps 628 mmHg 85%
    08:00 +8°C° 0 mm 1 mps 628 mmHg 79%
    09:00 +9°C° 0 mm 2 mps 628 mmHg 73%
    10:00 +10°C° 0 mm 2 mps 629 mmHg 67%
    11:00 +12°C° 0.1 mm 2 mps 629 mmHg 66%
    12:00 +12°C° 0.1 mm 2 mps 629 mmHg 65%
    13:00 +13°C° 0.1 mm 2 mps 629 mmHg 64%
    14:00 +13°C° 0.2 mm 2 mps 629 mmHg 68%
    15:00 +12°C° 0.2 mm 2 mps 629 mmHg 71%
    16:00 +12°C° 0.2 mm 2 mps 628 mmHg 75%
    17:00 +10°C° 0.2 mm 2 mps 628 mmHg 81%
    18:00 +10°C° 0.2 mm 1 mps 628 mmHg 87%
    19:00 +9°C° 0.2 mm 1 mps 628 mmHg 93%
    20:00 +7°C° 0 mm 1 mps 628 mmHg 94%
    21:00 +6°C° 0 mm 1 mps 628 mmHg 96%
    22:00 +5°C° 0 mm 1 mps 627 mmHg 97%
    23:00 +4°C° 0 mm 1 mps 627 mmHg 97%

    27 May, Saturday

    Time Temperature Precipitation Wind Pressure Humidity
    00:00 +4°C° 0 mm 1 mps 627 mmHg 98%
    01:00 +3°C° 0 mm 1 mps 627 mmHg 98%
    02:00 +3°C° 0 mm 1 mps 627 mmHg 97%
    03:00 +2°C° 0 mm 1 mps 627 mmHg 97%
    04:00 +2°C° 0 mm 1 mps 626 mmHg 97%
    05:00 +4°C° 0 mm 1 mps 627 mmHg 92%
    06:00 +6°C° 0 mm 1 mps 628 mmHg 87%
    07:00 +8°C° 0 mm 1 mps 629 mmHg 82%
    08:00 +10°C° 0 mm 1 mps 630 mmHg 73%
    09:00 +10°C° 0 mm 2 mps 631 mmHg 64%
    10:00 +13°C° 0 mm 2 mps 631 mmHg 55%
    11:00 +14°C° 0 mm 2 mps 631 mmHg 54%
    12:00 +14°C° 0 mm 2 mps 631 mmHg 52%
    13:00 +14°C° 0 mm 3 mps 631 mmHg 50%
    14:00 +14°C° 0 mm 3 mps 631 mmHg 52%
    15:00 +13°C° 0 mm 3 mps 631 mmHg 54%
    16:00 +13°C° 0 mm 3 mps 631 mmHg 56%
    17:00 +13°C° 0 mm 2 mps 630 mmHg 64%
    18:00 +10°C° 0 mm 2 mps 630 mmHg 72%
    19:00 +8°C° 0 mm 2 mps 630 mmHg 81%
    20:00 +7°C° 0 mm 1 mps 629 mmHg 84%
    21:00 +5°C° 0 mm 1 mps 629 mmHg 87%
    22:00 +3°C° 0 mm 1 mps 628 mmHg 90%
    23:00 +4°C° 0 mm 1 mps 628 mmHg 91%

    28 May, Sunday

    Time Temperature Precipitation Wind Pressure Humidity
    00:00 +4°C° 0 mm 1 mps 629 mmHg 91%
    01:00 +4°C° 0 mm 1 mps 629 mmHg 91%
    02:00 +4°C° 0 mm 1 mps 629 mmHg 91%
    03:00 +4°C° 0 mm 1 mps 629 mmHg 92%
    04:00 +3°C° 0 mm 2 mps 629 mmHg 93%
    05:00 +6°C° 0 mm 1 mps 630 mmHg 88%
    06:00 +8°C° 0 mm 1 mps 631 mmHg 83%
    07:00 +10°C° 0 mm 1 mps 631 mmHg 78%
    08:00 +12°C° 0 mm 1 mps 632 mmHg 68%
    09:00 +14°C° 0 mm 1 mps 633 mmHg 58%
    10:00 +16°C° 0 mm 1 mps 634 mmHg 48%
    11:00 +18°C° 0 mm 1 mps 634 mmHg 47%
    12:00 +18°C° 0 mm 2 mps 634 mmHg 46%
    13:00 +18°C° 0 mm 2 mps 634 mmHg 45%
    14:00 +18°C° 0 mm 2 mps 633 mmHg 48%
    15:00 +18°C° 0 mm 2 mps 633 mmHg 50%
    16:00 +18°C° 0 mm 2 mps 633 mmHg 53%
    17:00 +16°C° 0 mm 2 mps 632 mmHg 62%
    18:00 +14°C° 0 mm 1 mps 632 mmHg 72%
    19:00 +12°C° 0 mm 1 mps 631 mmHg 81%
    20:00 +10°C° 0 mm 1 mps 631 mmHg 84%
    21:00 +9°C° 0 mm 1 mps 630 mmHg 86%
    22:00 +6°C° 0 mm 2 mps 630 mmHg 89%
    23:00 +6°C° 0 mm 2 mps 630 mmHg 90%
    Show more